Location: Vancouver
(49.2500°N, 123.1330°W)
Time: 03:26:34
(UTC-07:00)

ISS - All Passes

Search period start: 23 March 2017 00:00
Search period end: 02 April 2017 00:00
Orbit: 399 x 409 km, 51.6° (Epoch: 23 March)

Date Brightness Start Highest point End Pass type
(mag) Time Alt. Az. Time Alt. Az. Time Alt. Az.
23 Mar - 00:52:27 10° WSW 00:55:45 76° NNW 00:59:03 10° ENE night (unlit)
23 Mar - 02:29:11 10° WNW 02:32:26 55° N 02:35:42 10° E night (unlit)
23 Mar - 04:05:44 10° WNW 04:09:01 69° SSW 04:12:19 10° ESE visible
23 Mar - 05:42:59 10° W 05:45:03 16° SW 05:47:07 10° S visible
23 Mar - 22:24:57 10° S 22:27:19 18° SE 22:29:41 10° E night (unlit)
24 Mar - 00:00:08 10° WSW 00:03:24 80° SSE 00:06:43 10° ENE night (unlit)
24 Mar - 01:36:47 10° W 01:40:02 54° N 01:43:17 10° ENE night (unlit)
24 Mar - 03:13:23 10° WNW 03:16:42 84° NNE 03:20:01 10° ESE night (unlit)
24 Mar - 04:50:09 10° W 04:52:55 25° SW 04:55:41 10° SSE visible
24 Mar - 21:34:11 10° SSE 21:35:14 11° SE 21:36:17 10° ESE night (unlit)
24 Mar - 23:07:55 10° SW 23:11:06 54° SSE 23:14:20 10° ENE night (unlit)
25 Mar - 00:44:21 10° W 00:47:37 58° N 00:50:53 10° ENE night (unlit)
25 Mar - 02:21:02 10° WNW 02:24:19 66° N 02:27:37 10° E night (unlit)
25 Mar - 03:57:36 10° WNW 04:00:43 39° SSW 04:03:49 10° SE night (unlit)
25 Mar - 22:15:51 10° SW 22:18:51 34° SSE 22:21:52 10° E night (unlit)
25 Mar - 23:51:55 10° W 23:55:12 70° NNW 23:58:30 10° ENE night (unlit)
26 Mar - 01:28:39 10° WNW 01:31:55 56° N 01:35:10 10° E night (unlit)
26 Mar - 03:05:11 10° WNW 03:08:26 60° SSW 03:11:42 10° SE night (unlit)
26 Mar - 04:42:46 10° WSW 04:44:23 13° SW 04:46:01 10° SSW night (unlit)
26 Mar - 21:24:05 10° SSW 21:26:39 22° SE 21:29:15 10° E visible
26 Mar - 22:59:32 10° WSW 23:02:48 89° S 23:06:06 10° ENE night (unlit)
27 Mar - 00:36:14 10° WNW 00:39:27 53° N 00:42:42 10° E night (unlit)
27 Mar - 02:12:48 10° WNW 02:16:06 87° SSW 02:19:24 10° ESE night (unlit)
27 Mar - 03:49:41 10° W 03:52:16 21° SW 03:54:49 10° SSE night (unlit)
27 Mar - 20:32:50 10° SSE 20:34:31 13° SE 20:36:11 10° ESE visible
27 Mar - 22:07:13 10° SW 22:10:27 62° SSE 22:13:42 10° ENE visible
27 Mar - 23:43:46 10° W 23:47:00 56° N 23:50:15 10° ENE night (unlit)
28 Mar - 01:20:25 10° WNW 01:23:42 71° NNE 01:27:00 10° E night (unlit)
28 Mar - 02:57:01 10° W 03:00:02 33° SSW 03:03:03 10° SSE night (unlit)
28 Mar - 21:15:04 10° SW 21:18:09 40° SSE 21:21:15 10° ENE visible
28 Mar - 22:51:17 10° W 22:54:32 65° NNW 22:57:49 10° ENE visible
29 Mar - 00:27:59 10° WNW 00:31:15 59° N 00:34:31 10° E night (unlit)
29 Mar - 02:04:32 10° WNW 02:07:45 52° SSW 02:10:58 10° SE night (unlit)
29 Mar - 03:42:42 10° WSW 03:43:37 11° SW 03:44:32 10° SSW night (unlit)
29 Mar - 20:23:08 10° SSW 20:25:53 25° SE 20:28:39 10° E visible
29 Mar - 21:58:50 10° WSW 22:02:06 83° NNW 22:05:24 10° ENE visible
29 Mar - 23:35:32 10° WNW 23:38:46 54° N 23:42:01 10° E visible
30 Mar - 01:12:05 10° WNW 01:15:23 78° SSW 01:18:40 10° ESE night (unlit)
30 Mar - 02:49:08 10° W 02:51:28 18° SW 02:53:47 10° S night (unlit)
30 Mar - 19:31:37 10° S 19:33:40 16° SE 19:35:45 10° E daylight
30 Mar - 21:06:27 10° WSW 21:09:42 71° SSE 21:12:58 10° ENE visible
30 Mar - 22:43:02 10° W 22:46:16 54° N 22:49:30 10° ENE visible
31 Mar - 00:19:39 10° WNW 00:22:58 77° NNE 00:26:15 10° ESE night (unlit)
31 Mar - 01:56:20 10° W 01:59:14 28° SW 02:02:07 10° SSE night (unlit)
31 Mar - 20:14:11 10° SW 20:17:20 46° SSE 20:20:29 10° ENE visible
31 Mar - 21:50:32 10° W 21:53:46 61° N 21:57:02 10° ENE visible
31 Mar - 23:27:13 10° WNW 23:30:29 62° N 23:33:45 10° E visible
01 Apr - 01:03:46 10° WNW 01:06:55 45° SSW 01:10:05 10° SE night (unlit)
01 Apr - 19:22:08 10° SSW 19:25:00 29° SE 19:27:54 10° E daylight
01 Apr - 20:58:02 10° WSW 21:01:17 75° NNW 21:04:34 10° ENE visible
01 Apr - 22:34:44 10° WNW 22:37:58 55° N 22:41:13 10° E visible
